[[{"header":{"parameterUnit":"m.s-1","parameterCategory":2,"la1":30.2991,"la2":30.254,"lo1":-89.0895,"lo2":-89.0444,"dy":0.0017,"dx":0.0017,"nx":28,"ny":28,"refTime":"2024-03-27T09:00:00:Z","depth":"0","parameterNumber":2,"parameterNumberName":"U-component_of_CURRENTS"},"data":[0,0,0,0,0,0,0,0,0,0,0,0,0,0,0,0,0,0,0,0,0,0,0,0,0,0,0,0,0,0,0,0,0,0,0,0,0,0,0,0,0,0,0,0,0,0,0,0,0,0,0,0,0,0,0,0,0,0,0.3819,0.3819,0,0.3823,0.3823,0.3823,0.3828,0.3828,0.3829,0.3829,0.3791,0.379,0.3789,0,0,0,0,0,0,0,0,0,0,0,0,0,0.381,0.381,0.3819,0.3819,0.382,0.3823,0.3823,0.3823,0.3828,0.3828,0.3829,0.3829,0.3792,0.379,0.3789,0,0,0,0,0,0,0,0,0,0,0,0,0,0.3811,0.381,0.3819,0.3825,0.3826,0.3823,0.3823,0.3822,0.3828,0.3828,0.3829,0.383,0.3792,0.379,0.3788,0.3764,0,0,0.3782,0.3781,0,0,0,0,0,0,0,0,0.381,0.381,0.3824,0.3825,0.3826,0.3829,0.3806,0.3802,0.3828,0.3824,0.3829,0.383,0.3802,0.3799,0.3794,0.3762,0.3761,0.3782,0.3781,0.378,0.3779,0,0,0,0,0,0,0,0.381,0.381,0.3817,0.3824,0.3826,0.3826,0.3826,0.3805,0.3806,0.3824,0.3825,0.3831,0.3802,0.3796,0.3793,0.376,0.3782,0.378,0.3779,0.3778,0.377,0.3771,0,0,0,0,0,0,0.3816,0.381,0.3817,0.3818,0.3823,0.3826,0.3826,0.3824,0.3807,0.3806,0.383,0.3831,0.3799,0.3796,0.3792,0.3788,0.378,0.3778,0.3777,0.3769,0.377,0.3772,0,0,0,0,0,0,0.3816,0.3816,0.3817,0.3817,0.3818,0.3826,0.3823,0.3824,0.3824,0.3813,0.3811,0.3831,0.38,0.3795,0.3794,0.3785,0.3777,0.3775,0.3768,0.377,0.3771,0.3762,0,0,0,0,0,0,0.3815,0.3816,0.3813,0.3817,0.3818,0.3812,0.3823,0.3824,0.3828,0.3829,0.3812,0.381,0.38,0.3798,0.3792,0.3782,0.3773,0.3767,0.3769,0.3771,0.3761,0.3764,0.3765,0,0,0,0,0,0.3815,0.3797,0.3813,0.3814,0.3815,0.3812,0.3811,0.3817,0.3828,0.3821,0.383,0.381,0.3806,0.3797,0.379,0.3779,0.3766,0.3768,0.377,0.3761,0.3763,0.3765,0,0,0,0,0,0,0.3771,0.3797,0.3814,0.3801,0.381,0.3814,0.3804,0.3818,0.3818,0.3819,0.3816,0.3814,0.3814,0.3804,0.3794,0.3789,0.3785,0.3786,0.378,0.3782,0.3784,0.3789,0.3772,0,0,0,0,0,0.3768,0.3769,0.3793,0.3778,0.3786,0.38,0.38,0.3807,0.3812,0.3812,0.3809,0.3811,0.3816,0.3807,0.3806,0.379,0.379,0.3785,0.3787,0.3788,0.3792,0.3788,0.3789,0.3779,0.3779,0.3779,0,0,0.3741,0.3758,0.3755,0.3771,0.3777,0.3782,0.3799,0.3795,0.3804,0.3806,0.3808,0.3815,0.3819,0.3814,0.3812,0.3802,0.3795,0.3791,0.3792,0.3795,0.379,0.3791,0.3792,0.3781,0.378,0.378,0,0,0.3694,0.3711,0.3706,0.3721,0.3743,0.3756,0.3759,0.3774,0.3787,0.3793,0.381,0.382,0.3808,0.3818,0.382,0.3832,0.3812,0.3828,0.3825,0.3821,0.3821,0.3821,0.3829,0.383,0.3819,0.3819,0.3819,0,0.3668,0.3667,0.3698,0.3705,0.3715,0.3748,0.3745,0.3763,0.3776,0.3787,0.3792,0.3812,0.3813,0.3823,0.3836,0.3832,0.3831,0.3809,0.3821,0.3821,0.3821,0.3829,0.383,0.3819,0.3819,0.3819,0.3819,0,0.3628,0.3634,0.3627,0.3658,0.367,0.3666,0.371,0.3722,0.3745,0.3765,0.3786,0.3802,0.381,0.3817,0.3829,0.3836,0.3835,0.3827,0.3808,0.3821,0.3829,0.383,0.3819,0.3819,0.3819,0.3819,0,0,0.3553,0.3594,0.3592,0.3609,0.3649,0.3653,0.3676,0.3705,0.372,0.3744,0.3757,0.3789,0.3802,0.381,0.3825,0.3829,0.3837,0.3828,0.3828,0.3824,0.3833,0.3875,0.388,0.3821,0.3822,0.3822,0.384,0,0.3515,0.3517,0.355,0.3552,0.3562,0.361,0.363,0.3664,0.3695,0.3715,0.3753,0.3772,0.3798,0.3803,0.3813,0.3838,0.3839,0.3834,0.3832,0.3833,0.3857,0.3883,0.3856,0.3873,0.3841,0.3841,0.3841,0,0.347,0.3485,0.348,0.3522,0.353,0.3537,0.3578,0.3602,0.3652,0.3677,0.3706,0.3737,0.3774,0.3782,0.3823,0.3815,0.3824,0.384,0.384,0.3883,0.3877,0.3855,0.3876,0.3544,0.3843,0.3842,0.3842,0,0.3412,0.3435,0.3431,0.3444,0.3494,0.3502,0.3529,0.358,0.3606,0.3655,0.3669,0.3715,0.3735,0.3762,0.3812,0.3811,0.3845,0.384,0.3885,0.3888,0.3869,0.3871,0.356,0.3848,0.3848,0.3848,0.3848,0,0.3366,0.3362,0.3403,0.3406,0.3407,0.346,0.347,0.351,0.3557,0.3582,0.3643,0.3668,0.3728,0.3761,0.3799,0.3859,0.3831,0.3898,0.3898,0.3869,0.3871,0.3587,0.3496,0.3849,0.3849,0.3849,0.3849,0,0.33,0.3327,0.3329,0.337,0.3381,0.3384,0.3434,0.3447,0.3503,0.3534,0.3551,0.3629,0.3699,0.3757,0.3807,0.3845,0.3761,0.3907,0.3884,0.3883,0.3649,0.3566,0.3341,0.326,0.3977,0.3978,0.3979,0,0.3254,0.3252,0.329,0.3295,0.3311,0.3328,0.3343,0.3409,0.3432,0.3516,0.3526,0.3606,0.3683,0.3791,0.3888,0.3975,0.3751,0.3953,0.3957,0.3631,0.3536,0.3394,0.3332,0.3925,0.3925,0.3926,0.3926,0,0.3178,0.32,0.3211,0.3226,0.3238,0.3254,0.3284,0.3296,0.3378,0.3426,0.3506,0.358,0.3738,0.3827,0.3939,0.3997,0.3725,0.3967,0.3612,0.3469,0.3311,0.3234,0.3911,0.393,0.3929,0.3929,0.3929,0.3929,0.3119,0.3113,0.3141,0.3154,0.3163,0.3175,0.3178,0.3225,0.3269,0.3334,0.3445,0.3556,0.3664,0.3871,0.3857,0.3727,0.3769,0.3603,0.3533,0.3415,0.3312,0.4016,0.4048,0.4048,0.4048,0.4048,0.4049,0,0.3061,0.3074,0.3072,0.3087,0.3077,0.3112,0.3134,0.3134,0.3171,0.3283,0.3373,0.3482,0.3513,0.3531,0.3498,0.328,0.3177,0.3072,0.2786,0.2757,0.3346,0.3309,0.32,0.32,0.32,0.3201,0.3201,0.3201,0.3033,0.3031,0.3041,0.3009,0.3013,0.2989,0.2998,0.3003,0.3072,0.3118,0.3193,0.3262,0.3188,0.2927,0.2636,0.2614,0.2263,0.2246,0.2102,0.2388,0.2426,0.2463,0.2391,0.2092,0.2091,0.1458,0.1453,0.1448]},{"header":{"parameterUnit":"m.s-1","parameterCategory":2,"la1":30.2991,"la2":30.254,"lo1":-89.0895,"lo2":-89.0444,"dy":0.0017,"dx":0.0017,"nx":28,"ny":28,"refTime":"2024-03-27T09:00:00:Z","depth":"0","parameterNumber":3,"parameterNumberName":"V-component_of_CURRENTS"},"data":[0,0,0,0,0,0,0,0,0,0,0,0,0,0,0,0,0,0,0,0,0,0,0,0,0,0,0,0,0,0,0,0,0,0,0,0,0,0,0,0,0,0,0,0,0,0,0,0,0,0,0,0,0,0,0,0,0,0,-0.1189,-0.119,0,-0.127,-0.1271,-0.1272,-0.1321,-0.1321,-0.1321,-0.1322,-0.1391,-0.1393,-0.1395,0,0,0,0,0,0,0,0,0,0,0,0,0,-0.1065,-0.1067,-0.1189,-0.119,-0.1191,-0.127,-0.1271,-0.1272,-0.1321,-0.1321,-0.1321,-0.1322,-0.1391,-0.1393,-0.1395,0,0,0,0,0,0,0,0,0,0,0,0,0,-0.113,-0.1067,-0.1189,-0.1224,-0.1228,-0.127,-0.1271,-0.1273,-0.1321,-0.1321,-0.1321,-0.1322,-0.139,-0.1392,-0.1395,-0.1406,0,0,-0.1403,-0.1404,0,0,0,0,0,0,0,0,-0.1126,-0.1135,-0.1218,-0.1222,-0.1226,-0.1285,-0.1253,-0.1316,-0.1321,-0.1286,-0.1322,-0.1322,-0.1354,-0.136,-0.1375,-0.1409,-0.1412,-0.1403,-0.1405,-0.1406,-0.1406,0,0,0,0,0,0,0,-0.1122,-0.1131,-0.1222,-0.1219,-0.1224,-0.1232,-0.1242,-0.1265,-0.1318,-0.1289,-0.1293,-0.1301,-0.1356,-0.1373,-0.1377,-0.1413,-0.1403,-0.1405,-0.1407,-0.1408,-0.1552,-0.1554,0,0,0,0,0,0,-0.1111,-0.1127,-0.1219,-0.1224,-0.1175,-0.1234,-0.1245,-0.1266,-0.1318,-0.1326,-0.1301,-0.1303,-0.1368,-0.1374,-0.138,-0.1411,-0.1406,-0.1408,-0.1409,-0.155,-0.1553,-0.1555,0,0,0,0,0,0,-0.1108,-0.1119,-0.1216,-0.1176,-0.1189,-0.1236,-0.126,-0.1268,-0.1288,-0.1327,-0.1335,-0.1312,-0.1369,-0.1376,-0.143,-0.1414,-0.1409,-0.1411,-0.1547,-0.1551,-0.1554,-0.1464,0,0,0,0,0,0,-0.1105,-0.1118,-0.1128,-0.1176,-0.1191,-0.1241,-0.126,-0.1269,-0.1292,-0.1296,-0.1339,-0.1346,-0.137,-0.1427,-0.1433,-0.1417,-0.1413,-0.1544,-0.1549,-0.1553,-0.1464,-0.1464,-0.1464,0,0,0,0,0,-0.11,-0.1114,-0.1129,-0.114,-0.1205,-0.1241,-0.1249,-0.1283,-0.1292,-0.1302,-0.1351,-0.1345,-0.1459,-0.143,-0.1437,-0.1421,-0.1542,-0.1547,-0.1552,-0.1464,-0.1464,-0.1464,0,0,0,0,0,0,-0.1062,-0.1121,-0.1139,-0.1169,-0.1201,-0.1249,-0.1259,-0.1281,-0.1326,-0.133,-0.1368,-0.138,-0.1428,-0.1454,-0.1422,-0.1488,-0.1501,-0.1508,-0.1432,-0.1432,-0.1432,-0.1374,-0.1416,0,0,0,0,0,-0.1059,-0.1087,-0.1136,-0.1158,-0.1173,-0.1215,-0.1232,-0.1255,-0.1299,-0.1319,-0.1354,-0.1404,-0.1455,-0.1465,-0.152,-0.1538,-0.1522,-0.1543,-0.1542,-0.1541,-0.1507,-0.1487,-0.1479,-0.1572,-0.1572,-0.1572,0,0,-0.1049,-0.1084,-0.1099,-0.1152,-0.1178,-0.1194,-0.1226,-0.125,-0.1262,-0.1318,-0.135,-0.1408,-0.147,-0.1508,-0.1528,-0.1519,-0.1513,-0.1548,-0.1545,-0.1511,-0.1491,-0.1481,-0.1472,-0.1576,-0.1575,-0.1574,0,0,-0.1035,-0.1074,-0.1088,-0.1113,-0.1152,-0.1178,-0.1183,-0.1232,-0.1252,-0.1294,-0.1349,-0.1391,-0.1463,-0.1492,-0.1519,-0.1551,-0.1528,-0.1586,-0.1506,-0.1487,-0.1476,-0.1467,-0.1434,-0.1423,-0.1564,-0.1564,-0.1564,0,-0.1017,-0.1048,-0.1095,-0.1109,-0.1121,-0.1166,-0.1171,-0.1198,-0.1259,-0.1264,-0.1296,-0.1394,-0.1445,-0.1468,-0.149,-0.1537,-0.1524,-0.1486,-0.1476,-0.1467,-0.1459,-0.1428,-0.1416,-0.156,-0.1561,-0.1561,-0.1561,0,-0.1014,-0.1034,-0.1041,-0.1075,-0.1093,-0.1106,-0.1144,-0.1161,-0.1189,-0.1212,-0.1252,-0.1326,-0.1367,-0.1407,-0.1454,-0.1435,-0.1445,-0.1485,-0.145,-0.1442,-0.1413,-0.1402,-0.1555,-0.1556,-0.1557,-0.1558,0,0,-0.0986,-0.103,-0.103,-0.1031,-0.1076,-0.1083,-0.1096,-0.1112,-0.1097,-0.1153,-0.1133,-0.1229,-0.1248,-0.1283,-0.1343,-0.1327,-0.1272,-0.1369,-0.137,-0.1288,-0.121,-0.1176,-0.1161,-0.1301,-0.1299,-0.1298,-0.121,0,-0.0966,-0.0971,-0.1005,-0.0998,-0.1002,-0.1034,-0.1035,-0.105,-0.1071,-0.1064,-0.111,-0.1135,-0.1207,-0.1221,-0.1214,-0.1272,-0.124,-0.129,-0.1273,-0.1271,-0.1201,-0.1146,-0.0977,-0.0882,-0.1199,-0.1198,-0.1196,0,-0.0954,-0.0957,-0.0946,-0.0949,-0.0951,-0.0946,-0.0932,-0.0941,-0.0943,-0.0955,-0.096,-0.1006,-0.1006,-0.1073,-0.1081,-0.1109,-0.1139,-0.1172,-0.117,-0.115,-0.1215,-0.0949,-0.085,-0.0858,-0.1179,-0.1181,-0.1182,0,-0.0903,-0.0915,-0.0897,-0.0901,-0.0912,-0.0895,-0.0895,-0.0897,-0.0883,-0.0873,-0.0852,-0.0871,-0.0874,-0.0903,-0.0977,-0.1021,-0.0972,-0.1045,-0.103,-0.1029,-0.0885,-0.0874,-0.0742,-0.1016,-0.1017,-0.1017,-0.1017,0,-0.0873,-0.0854,-0.0864,-0.0851,-0.0805,-0.0837,-0.0786,-0.0787,-0.0772,-0.0729,-0.0782,-0.0746,-0.0831,-0.0833,-0.0903,-0.0908,-0.0905,-0.0975,-0.0988,-0.0856,-0.0844,-0.0849,-0.0937,-0.1014,-0.1014,-0.1015,-0.1016,0,-0.0812,-0.0829,-0.0799,-0.0792,-0.078,-0.0741,-0.0713,-0.0674,-0.0677,-0.0616,-0.0607,-0.0628,-0.0632,-0.0705,-0.075,-0.08,-0.0808,-0.0835,-0.0667,-0.0661,-0.0671,-0.0763,-0.0683,-0.0696,-0.0783,-0.0781,-0.078,0,-0.0778,-0.0761,-0.0734,-0.0703,-0.0692,-0.0648,-0.061,-0.0613,-0.0576,-0.0539,-0.0496,-0.0492,-0.046,-0.0495,-0.0581,-0.0635,-0.0725,-0.0528,-0.0589,-0.0599,-0.0712,-0.0785,-0.0809,-0.0364,-0.0359,-0.0355,-0.0352,0,-0.0705,-0.0698,-0.0668,-0.061,-0.0564,-0.0514,-0.0468,-0.0423,-0.0416,-0.0357,-0.0284,-0.0252,-0.0288,-0.0239,-0.0329,-0.0389,-0.0497,-0.0455,-0.0488,-0.0371,-0.0415,-0.0457,-0.0509,-0.0318,-0.0322,-0.0324,-0.0326,-0.0327,-0.064,-0.0602,-0.0573,-0.051,-0.0456,-0.0389,-0.0325,-0.0272,-0.0186,-0.0063,-0.0076,0.0093,0.0133,0.0032,-0.0108,-0.0162,-0.0329,-0.0141,-0.0248,-0.0318,-0.0327,-0.0307,-0.0139,-0.0141,-0.0143,-0.0145,-0.0146,0,-0.0577,-0.0543,-0.0479,-0.0411,-0.0334,-0.0329,-0.0235,-0.0153,-0.0024,0.0161,0.0266,0.0571,0.0565,0.0462,0.0335,0.0155,0.0025,0.0051,0.002,-0.0019,0.0036,0.006,0.0307,0.0307,0.0307,0.0307,0.0307,0.0307,-0.0543,-0.0482,-0.0455,-0.0325,-0.0264,-0.0149,-0.0084,0.005,0.0212,0.0554,0.0842,0.1016,0.1106,0.0697,0.0456,0.0339,0.0147,0.0116,-0.0074,0.0002,-0.0023,-0.0047,-0.0039,0.0184,0.0183,0.0005,0.0003,0.0002]}],[{"header":{"parameterUnit":"m.s-1","parameterCategory":2,"la1":30.2991,"la2":30.254,"lo1":-89.0895,"lo2":-89.0444,"dy":0.0017,"dx":0.0017,"nx":28,"ny":28,"refTime":"2024-03-27T09:00:00:Z","depth":"2","parameterNumber":2,"parameterNumberName":"U-component_of_CURRENTS"},"data":[0,0,0,0,0,0,0,0,0,0,0,0,0,0,0,0,0,0,0,0,0,0,0,0,0,0,0,0,0,0,0,0,0,0,0,0,0,0,0,0,0,0,0,0,0,0,0,0,0,0,0,0,0,0,0,0,0,0,0.173,0.1731,0,0.1813,0.1814,0.1814,0.1793,0.1792,0.1791,0.179,0.1851,0.1853,0.1856,0,0,0,0,0,0,0,0,0,0,0,0,0,0.1659,0.1659,0.173,0.1732,0.1733,0.1813,0.1814,0.1814,0.1793,0.1792,0.1791,0.1789,0.185,0.1853,0.1856,0,0,0,0,0,0,0,0,0,0,0,0,0,0.1705,0.1659,0.173,0.1737,0.1738,0.1813,0.1814,0.1814,0.1794,0.1792,0.179,0.1789,0.1849,0.1853,0.1857,0.1914,0,0,0.1869,0.187,0,0,0,0,0,0,0,0,0.1702,0.1707,0.1734,0.1736,0.1739,0.1796,0.1811,0.1849,0.1794,0.1766,0.179,0.1788,0.1836,0.1841,0.1852,0.1917,0.1919,0.1869,0.1871,0.1873,0.1874,0,0,0,0,0,0,0,0.1699,0.1704,0.1757,0.1736,0.1739,0.1773,0.1775,0.1818,0.1804,0.1769,0.1769,0.1788,0.1835,0.1848,0.1853,0.192,0.1869,0.1872,0.1875,0.1876,0.2063,0.2065,0,0,0,0,0,0,0.1697,0.17,0.1754,0.176,0.1723,0.1775,0.1778,0.1775,0.1804,0.1809,0.1789,0.1787,0.1842,0.1848,0.1855,0.1992,0.1873,0.1877,0.1879,0.206,0.2063,0.2066,0,0,0,0,0,0,0.1695,0.17,0.1751,0.1738,0.1748,0.1778,0.1774,0.1777,0.1825,0.1821,0.1824,0.1838,0.1841,0.185,0.1911,0.1991,0.1879,0.1882,0.2057,0.2061,0.2065,0.2222,0,0,0,0,0,0,0.1692,0.1698,0.1716,0.1737,0.1749,0.1829,0.1777,0.178,0.184,0.1838,0.1864,0.1865,0.184,0.1906,0.1915,0.1995,0.1885,0.2054,0.2059,0.2063,0.2214,0.2231,0.2246,0,0,0,0,0,0.1689,0.171,0.1715,0.1724,0.1764,0.1833,0.1843,0.1855,0.1844,0.1887,0.1886,0.1866,0.1942,0.1911,0.1922,0.2004,0.2051,0.2057,0.2063,0.2207,0.2228,0.2246,0,0,0,0,0,0,0.1705,0.1712,0.1717,0.1744,0.1805,0.1832,0.1876,0.1891,0.1927,0.1926,0.1907,0.191,0.1999,0.1977,0.1943,0.2068,0.1993,0.2001,0.2098,0.2118,0.2134,0.2151,0.1889,0,0,0,0,0,0.1716,0.1723,0.1763,0.1797,0.1826,0.1864,0.1901,0.1919,0.1947,0.1963,0.1975,0.1989,0.203,0.2051,0.2078,0.2154,0.2162,0.2209,0.2225,0.2239,0.2259,0.2329,0.2354,0.2085,0.2085,0.2085,0,0,0.1759,0.1744,0.1768,0.1802,0.1841,0.1896,0.1882,0.1957,0.2002,0.1967,0.2033,0.2062,0.2065,0.2142,0.2179,0.2134,0.2325,0.2246,0.2259,0.2271,0.2338,0.2364,0.2388,0.2089,0.2088,0.2088,0,0,0.1813,0.1814,0.1841,0.1882,0.1941,0.1957,0.1993,0.205,0.2076,0.215,0.214,0.222,0.2255,0.2291,0.2306,0.2433,0.2416,0.2437,0.2531,0.26,0.2623,0.2643,0.2713,0.2738,0.2434,0.2434,0.2435,0,0.1878,0.1875,0.1877,0.1909,0.1954,0.1988,0.2058,0.2094,0.2164,0.2196,0.2184,0.2304,0.233,0.2437,0.2483,0.2478,0.25,0.246,0.2623,0.2643,0.2661,0.2727,0.2753,0.2443,0.2442,0.2441,0.244,0,0.1923,0.1958,0.1985,0.2011,0.2068,0.2139,0.2185,0.2228,0.2259,0.2301,0.2427,0.2479,0.2549,0.2584,0.2577,0.273,0.2702,0.2647,0.2579,0.2699,0.276,0.2784,0.2455,0.2452,0.2449,0.2447,0,0,0.1984,0.2018,0.203,0.2067,0.2128,0.2179,0.2239,0.2317,0.2373,0.2454,0.2545,0.2671,0.2727,0.2752,0.2787,0.2859,0.3038,0.2819,0.2819,0.2897,0.3199,0.2941,0.2941,0.3005,0.301,0.3013,0.32,0,0.2038,0.2093,0.21,0.2205,0.2253,0.2287,0.2348,0.2418,0.2474,0.2562,0.265,0.2776,0.2781,0.2866,0.2942,0.3011,0.3104,0.2993,0.3063,0.3066,0.2828,0.2961,0.2719,0.2842,0.3223,0.3227,0.323,0,0.206,0.2089,0.2191,0.2279,0.2312,0.2393,0.248,0.2553,0.2653,0.2704,0.2823,0.2886,0.3058,0.3029,0.3224,0.3148,0.3209,0.3245,0.3251,0.2967,0.285,0.2777,0.287,0.3269,0.3266,0.3263,0.326,0,0.2046,0.2147,0.2222,0.2259,0.2369,0.2439,0.252,0.2619,0.2674,0.2843,0.2897,0.3067,0.3176,0.3276,0.3345,0.3317,0.3502,0.346,0.3292,0.3275,0.3059,0.3012,0.3613,0.3612,0.3612,0.3612,0.3611,0,0.2058,0.2134,0.224,0.229,0.2396,0.2497,0.2623,0.2697,0.2822,0.2886,0.3023,0.3075,0.3243,0.3327,0.3394,0.3395,0.355,0.3344,0.3311,0.3103,0.306,0.3401,0.3374,0.3618,0.3617,0.3616,0.3614,0,0.2052,0.2115,0.2204,0.2342,0.2396,0.2493,0.2653,0.2702,0.2869,0.2951,0.3017,0.3132,0.3233,0.334,0.3495,0.3431,0.3481,0.3445,0.3179,0.3106,0.3216,0.3195,0.3318,0.3311,0.3304,0.3299,0.3295,0,0.2062,0.2101,0.2221,0.2269,0.2359,0.2499,0.2546,0.2703,0.2738,0.293,0.2927,0.3085,0.3063,0.3172,0.3164,0.3226,0.3353,0.2994,0.2877,0.3233,0.319,0.3179,0.3167,0.2705,0.2696,0.2689,0.2683,0,0.2049,0.2086,0.2123,0.2232,0.2306,0.2376,0.2487,0.2498,0.2646,0.27,0.2742,0.277,0.2842,0.2717,0.2765,0.2773,0.2953,0.2834,0.3339,0.2747,0.2649,0.2607,0.2619,0.2618,0.2625,0.263,0.2633,0.2636,0.2003,0.2011,0.2046,0.2147,0.2219,0.2261,0.2249,0.2305,0.232,0.2337,0.2421,0.234,0.2396,0.2258,0.2259,0.2308,0.251,0.2431,0.2459,0.2493,0.2318,0.2206,0.2064,0.2067,0.207,0.2072,0.2075,0,0.1901,0.1918,0.1971,0.2029,0.204,0.2176,0.2166,0.2051,0.1969,0.2002,0.1966,0.1724,0.1639,0.1762,0.1716,0.1734,0.1805,0.1691,0.1775,0.1838,0.1895,0.1694,0.1274,0.1271,0.1269,0.1267,0,0,0.1825,0.1792,0.181,0.1805,0.19,0.1825,0.1791,0.1654,0.1578,0.1428,0.1362,0.1387,0.1539,0.1279,0.134,0.1287,0.1546,0.1247,0.1885,0.2036,0.2089,0.2313,0.207,0,0,0,0,0]},{"header":{"parameterUnit":"m.s-1","parameterCategory":2,"la1":30.2991,"la2":30.254,"lo1":-89.0895,"lo2":-89.0444,"dy":0.0017,"dx":0.0017,"nx":28,"ny":28,"refTime":"2024-03-27T09:00:00:Z","depth":"2","parameterNumber":3,"parameterNumberName":"V-component_of_CURRENTS"},"data":[0,0,0,0,0,0,0,0,0,0,0,0,0,0,0,0,0,0,0,0,0,0,0,0,0,0,0,0,0,0,0,0,0,0,0,0,0,0,0,0,0,0,0,0,0,0,0,0,0,0,0,0,0,0,0,0,0,0,0.0521,0.0521,0,0.0452,0.0451,0.045,0.0367,0.0366,0.0365,0.0364,0.0227,0.0225,0.0222,0,0,0,0,0,0,0,0,0,0,0,0,0,0.0547,0.0547,0.0521,0.0521,0.052,0.0452,0.0451,0.045,0.0367,0.0366,0.0364,0.0363,0.0228,0.0225,0.0222,0,0,0,0,0,0,0,0,0,0,0,0,0,0.051,0.0547,0.0521,0.0472,0.0467,0.0453,0.0451,0.045,0.0367,0.0366,0.0364,0.0362,0.0229,0.0225,0.0222,0.023,0,0,0.021,0.0208,0,0,0,0,0,0,0,0,0.0513,0.0509,0.048,0.0476,0.047,0.0419,0.041,0.0374,0.0368,0.0403,0.0363,0.0362,0.0288,0.0279,0.0267,0.0223,0.0217,0.0209,0.0207,0.0205,0.0204,0,0,0,0,0,0,0,0.0515,0.0512,0.0491,0.048,0.0473,0.0442,0.0435,0.0403,0.0352,0.0399,0.0394,0.0391,0.0284,0.0271,0.0263,0.0215,0.0209,0.0206,0.0203,0.0202,0.0168,0.017,0,0,0,0,0,0,0.0532,0.0514,0.0494,0.049,0.049,0.0443,0.0435,0.0435,0.0354,0.0341,0.0392,0.0387,0.0279,0.0268,0.0258,0.0253,0.0205,0.0201,0.0199,0.0167,0.0169,0.017,0,0,0,0,0,0,0.0533,0.0531,0.0496,0.0502,0.0495,0.0445,0.0445,0.0434,0.0403,0.0349,0.0334,0.037,0.0277,0.0263,0.0228,0.0247,0.02,0.0196,0.0165,0.0167,0.0169,0.0249,0,0,0,0,0,0,0.0534,0.0532,0.0536,0.0503,0.0496,0.0484,0.0446,0.0434,0.0406,0.0398,0.0326,0.0313,0.0275,0.0234,0.0224,0.0241,0.0193,0.0163,0.0166,0.0169,0.0244,0.0253,0.0261,0,0,0,0,0,0.0536,0.0564,0.0537,0.0534,0.0504,0.0484,0.0477,0.0434,0.0407,0.0398,0.0355,0.0314,0.0245,0.0232,0.0219,0.0236,0.0162,0.0165,0.0168,0.024,0.0251,0.0261,0,0,0,0,0,0,0.0578,0.0557,0.0527,0.0545,0.0509,0.0471,0.0476,0.0433,0.0392,0.0384,0.0323,0.0307,0.0285,0.0254,0.0242,0.0238,0.0201,0.0202,0.026,0.027,0.0278,0.0312,0.019,0,0,0,0,0,0.059,0.0605,0.0561,0.0574,0.0566,0.0514,0.05,0.0462,0.0426,0.0405,0.0352,0.0314,0.0295,0.0275,0.0245,0.0238,0.0212,0.0245,0.0254,0.0261,0.0283,0.0259,0.0267,0.0181,0.0181,0.0181,0,0,0.0607,0.0603,0.0606,0.0584,0.0562,0.0561,0.0502,0.0486,0.0485,0.0399,0.0382,0.0332,0.0298,0.0292,0.0281,0.0264,0.0272,0.0265,0.0272,0.029,0.0263,0.0272,0.0279,0.0183,0.0183,0.0182,0,0,0.0662,0.0649,0.0673,0.0654,0.0623,0.0597,0.059,0.0535,0.0513,0.0486,0.0437,0.0406,0.0355,0.0345,0.0335,0.0376,0.0314,0.0357,0.0427,0.0403,0.041,0.0416,0.039,0.0392,0.0365,0.0365,0.0365,0,0.0674,0.07,0.0674,0.069,0.0687,0.0617,0.0629,0.0611,0.0545,0.0543,0.0493,0.0441,0.0396,0.0416,0.0426,0.0397,0.0363,0.0388,0.0414,0.0419,0.0423,0.0395,0.0397,0.0369,0.0369,0.0369,0.0368,0,0.0739,0.075,0.0771,0.077,0.0765,0.0766,0.0735,0.0722,0.0679,0.0646,0.0629,0.0564,0.0534,0.0517,0.048,0.0498,0.0457,0.0421,0.0387,0.0437,0.0404,0.0404,0.0376,0.0374,0.0373,0.0372,0,0,0.0787,0.0806,0.081,0.0819,0.0803,0.0805,0.0833,0.083,0.0849,0.0779,0.0795,0.0751,0.0688,0.0675,0.0615,0.0596,0.0586,0.0523,0.052,0.0496,0.0522,0.0527,0.0527,0.0538,0.0539,0.054,0.0485,0,0.0832,0.0881,0.0879,0.0919,0.094,0.0912,0.0943,0.0935,0.0914,0.0911,0.086,0.0827,0.0759,0.0718,0.0701,0.0604,0.0591,0.0604,0.048,0.0477,0.0473,0.053,0.0517,0.047,0.0485,0.0485,0.0485,0,0.0892,0.092,0.0962,0.0995,0.1002,0.1007,0.1048,0.1055,0.1058,0.1036,0.1011,0.0949,0.0911,0.0832,0.0735,0.0736,0.0649,0.058,0.0575,0.0557,0.0484,0.0424,0.047,0.0485,0.0485,0.0485,0.0485,0,0.0947,0.0981,0.1017,0.1024,0.1048,0.1063,0.1062,0.108,0.1103,0.1084,0.1085,0.1037,0.0977,0.089,0.0758,0.0726,0.0655,0.0587,0.0524,0.0522,0.0481,0.0476,0.0543,0.0543,0.0543,0.0543,0.0543,0,0.1009,0.1035,0.1031,0.1055,0.1098,0.1088,0.1133,0.1135,0.1147,0.1182,0.1118,0.1145,0.098,0.0925,0.0807,0.0685,0.069,0.0561,0.0521,0.0509,0.0507,0.0494,0.0489,0.0541,0.0541,0.0542,0.0542,0,0.1063,0.1059,0.1102,0.1121,0.1121,0.1139,0.1157,0.1209,0.1183,0.1228,0.1212,0.1195,0.1121,0.0994,0.0846,0.0733,0.0622,0.0581,0.0583,0.0546,0.0486,0.0486,0.0487,0.0487,0.0487,0.0487,0.0487,0,0.1084,0.1113,0.1145,0.1159,0.1154,0.1173,0.1214,0.1218,0.1271,0.1284,0.1327,0.1267,0.1282,0.1094,0.0882,0.0695,0.067,0.0542,0.0492,0.0526,0.0486,0.0486,0.0486,0.0454,0.0454,0.0454,0.0453,0,0.1133,0.114,0.1182,0.1215,0.1242,0.1295,0.1328,0.1381,0.14,0.1446,0.1516,0.1521,0.1342,0.1158,0.0883,0.0756,0.0569,0.0531,0.0571,0.0484,0.0495,0.0455,0.0456,0.0451,0.0452,0.0452,0.0452,0.0452,0.1152,0.1189,0.1235,0.127,0.1312,0.1383,0.145,0.1513,0.1603,0.1643,0.1663,0.1621,0.1404,0.104,0.0821,0.0553,0.0587,0.0457,0.0457,0.0458,0.0478,0.049,0.0449,0.0449,0.0449,0.0449,0.0449,0,0.1174,0.1222,0.1277,0.1339,0.141,0.1408,0.1524,0.16,0.1721,0.1717,0.1761,0.149,0.1291,0.1027,0.0626,0.042,0.0381,0.0344,0.0329,0.0335,0.0339,0.0352,0.0289,0.0287,0.0286,0.0285,0,0,0.1184,0.1249,0.1296,0.1404,0.1445,0.1562,0.1631,0.1722,0.175,0.1731,0.1647,0.1624,0.1316,0.0982,0.0722,0.049,0.045,0.0441,0.0598,0.0621,0.0626,0.0442,0.0473,0,0,0,0,0]}],[{"header":{"parameterUnit":"m.s-1","parameterCategory":2,"la1":30.2991,"la2":30.254,"lo1":-89.0895,"lo2":-89.0444,"dy":0.0017,"dx":0.0017,"nx":28,"ny":28,"refTime":"2024-03-27T09:00:00:Z","depth":"4","parameterNumber":2,"parameterNumberName":"U-component_of_CURRENTS"},"data":[0,0,0,0,0,0,0,0,0,0,0,0,0,0,0,0,0,0,0,0,0,0,0,0,0,0,0,0,0,0,0,0,0,0,0,0,0,0,0,0,0,0,0,0,0,0,0,0,0,0,0,0,0,0,0,0,0,0,0.07,0.0701,0,0.0748,0.0748,0.0749,0.0783,0.0783,0.0783,0.0784,0.0845,0.0846,0.0847,0,0,0,0,0,0,0,0,0,0,0,0,0,0.0613,0.0614,0.07,0.0701,0.0701,0.0748,0.0748,0.0749,0.0783,0.0783,0.0784,0.0784,0.0844,0.0846,0.0847,0,0,0,0,0,0,0,0,0,0,0,0,0,0.0654,0.0615,0.07,0.0724,0.0727,0.0748,0.0748,0.0749,0.0783,0.0783,0.0784,0.0784,0.0844,0.0846,0.0848,0.0849,0,0,0.0854,0.0854,0,0,0,0,0,0,0,0,0.0651,0.0657,0.072,0.0723,0.0726,0.0761,0.074,0.0783,0.0782,0.076,0.0784,0.0784,0.0818,0.0822,0.0828,0.0852,0.0854,0.0854,0.0855,0.0856,0.0856,0,0,0,0,0,0,0,0.0648,0.0655,0.0718,0.0721,0.0724,0.0725,0.0731,0.0748,0.0785,0.0762,0.0765,0.0772,0.082,0.0826,0.083,0.0855,0.0854,0.0855,0.0857,0.0857,0.0952,0.0953,0,0,0,0,0,0,0.0645,0.0652,0.0716,0.0719,0.069,0.0726,0.0733,0.0748,0.0785,0.0791,0.0771,0.0773,0.0823,0.0828,0.0833,0.089,0.0856,0.0858,0.0859,0.0951,0.0952,0.0954,0,0,0,0,0,0,0.0644,0.0651,0.0714,0.0687,0.0695,0.0727,0.0744,0.0749,0.0771,0.0792,0.0798,0.079,0.0824,0.083,0.0867,0.0891,0.0858,0.086,0.0949,0.0951,0.0953,0.097,0,0,0,0,0,0,0.0641,0.065,0.0668,0.0687,0.0697,0.0735,0.0743,0.0749,0.0774,0.0777,0.0809,0.0815,0.0824,0.0864,0.0869,0.0893,0.0862,0.0947,0.095,0.0952,0.0968,0.0973,0.0977,0,0,0,0,0,0.0638,0.0658,0.0668,0.0677,0.0718,0.0735,0.074,0.0763,0.0774,0.0785,0.0813,0.0814,0.0884,0.0866,0.0872,0.0897,0.0946,0.0949,0.0952,0.0966,0.0972,0.0977,0,0,0,0,0,0,0.0624,0.0664,0.0676,0.0707,0.0723,0.0741,0.0757,0.077,0.0799,0.081,0.0827,0.0835,0.0872,0.0886,0.0866,0.0934,0.0917,0.0921,0.0926,0.0931,0.0936,0.0957,0.0863,0,0,0,0,0,0.063,0.0659,0.0685,0.0707,0.0718,0.0739,0.0753,0.0768,0.0792,0.0806,0.0829,0.086,0.0886,0.091,0.0928,0.0967,0.0983,0.0989,0.0993,0.0997,0.102,0.1048,0.1057,0.0964,0.0964,0.0964,0,0,0.0625,0.0655,0.0668,0.0707,0.0722,0.0744,0.0749,0.0773,0.08,0.0808,0.0855,0.0869,0.0897,0.0937,0.0957,0.0956,0.1034,0.1001,0.1003,0.1025,0.1052,0.1061,0.1069,0.0966,0.0965,0.0965,0,0,0.0625,0.0661,0.0682,0.0702,0.0735,0.0755,0.0764,0.0793,0.0818,0.0858,0.0871,0.0905,0.0947,0.0975,0.0993,0.1036,0.1045,0.1043,0.1094,0.112,0.1128,0.1135,0.117,0.1179,0.1056,0.1056,0.1056,0,0.062,0.0656,0.0686,0.071,0.0732,0.0761,0.0782,0.0812,0.0851,0.0879,0.0878,0.0954,0.0968,0.1029,0.1049,0.1046,0.1067,0.1067,0.1125,0.1133,0.1139,0.1173,0.1184,0.1058,0.1058,0.1057,0.1057,0,0.0631,0.0665,0.0677,0.0726,0.0751,0.0774,0.0817,0.0854,0.0888,0.0918,0.098,0.1005,0.1058,0.1063,0.1074,0.1138,0.1138,0.1114,0.1108,0.115,0.1182,0.1193,0.1059,0.1059,0.1059,0.1058,0,0,0.061,0.0673,0.0682,0.0704,0.0765,0.0783,0.0842,0.0901,0.0948,0.0993,0.1055,0.1103,0.1126,0.1151,0.1165,0.1198,0.1257,0.1191,0.1191,0.1219,0.1332,0.1234,0.1236,0.1242,0.1244,0.1245,0.1335,0,0.0612,0.0658,0.0695,0.0738,0.0762,0.0815,0.0865,0.0925,0.0984,0.1053,0.1103,0.1162,0.1158,0.1192,0.1226,0.1239,0.1288,0.1237,0.1294,0.1297,0.1198,0.1246,0.1252,0.1343,0.1346,0.1347,0.1349,0,0.0616,0.0652,0.0695,0.0753,0.0769,0.0805,0.09,0.095,0.1055,0.1102,0.1181,0.1221,0.1297,0.1278,0.1352,0.132,0.1348,0.1357,0.1359,0.1274,0.1218,0.1294,0.1368,0.1367,0.1365,0.1364,0.1363,0,0.0593,0.0651,0.069,0.071,0.0783,0.0822,0.0872,0.0971,0.1025,0.1151,0.1202,0.1288,0.1342,0.138,0.1406,0.1392,0.1471,0.1444,0.1393,0.1387,0.1439,0.143,0.152,0.152,0.1519,0.1519,0.1519,0,0.0585,0.0615,0.0685,0.0705,0.0756,0.0814,0.0887,0.0956,0.106,0.1124,0.1231,0.129,0.1372,0.1422,0.1437,0.144,0.1498,0.1422,0.1406,0.1444,0.1435,0.1446,0.1437,0.1522,0.1522,0.1521,0.152,0,0.0553,0.0601,0.064,0.0717,0.0747,0.0786,0.0884,0.0932,0.1043,0.1135,0.118,0.1312,0.1376,0.1435,0.15,0.147,0.1481,0.1476,0.1531,0.1513,0.1382,0.1372,0.1439,0.1436,0.1434,0.1432,0.1431,0,0.054,0.0563,0.064,0.0664,0.0702,0.077,0.0814,0.0921,0.0971,0.1127,0.1158,0.1282,0.1354,0.1367,0.1435,0.147,0.1458,0.1469,0.1423,0.1397,0.1376,0.137,0.1363,0.1427,0.1427,0.1426,0.1425,0,0.0513,0.0546,0.0575,0.0622,0.0666,0.0706,0.0778,0.081,0.0931,0.1041,0.1111,0.1177,0.1259,0.1313,0.1355,0.1373,0.1453,0.1445,0.145,0.1407,0.1384,0.1363,0.1359,0.1418,0.1419,0.142,0.142,0,0.0492,0.0496,0.0534,0.0567,0.0606,0.0619,0.0673,0.0729,0.0792,0.0965,0.0983,0.1113,0.1226,0.1265,0.1291,0.1308,0.1304,0.1268,0.1282,0.1292,0.1202,0.1148,0.1113,0,0,0,0,0,0.0465,0.0459,0.0478,0.0493,0.0518,0.0545,0.0632,0.0689,0.0817,0.0832,0.0905,0.0973,0.1056,0.113,0.1123,0.1245,0.1307,0.1233,0.127,0.1375,0.1384,0.1292,0,0,0,0,0,0,0.0446,0.0456,0.0453,0.0414,0.0413,0.0431,0.0484,0.0573,0.0594,0.0737,0.0783,0.0902,0.0992,0.1032,0.1094,0.1119,0.1123,0.132,0.1317,0.137,0.1378,0.1385,0.1294,0,0,0,0,0]},{"header":{"parameterUnit":"m.s-1","parameterCategory":2,"la1":30.2991,"la2":30.254,"lo1":-89.0895,"lo2":-89.0444,"dy":0.0017,"dx":0.0017,"nx":28,"ny":28,"refTime":"2024-03-27T09:00:00:Z","depth":"4","parameterNumber":3,"parameterNumberName":"V-component_of_CURRENTS"},"data":[0,0,0,0,0,0,0,0,0,0,0,0,0,0,0,0,0,0,0,0,0,0,0,0,0,0,0,0,0,0,0,0,0,0,0,0,0,0,0,0,0,0,0,0,0,0,0,0,0,0,0,0,0,0,0,0,0,0,0.0473,0.0472,0,0.0452,0.0451,0.0451,0.0423,0.0422,0.0422,0.0422,0.0394,0.0394,0.0394,0,0,0,0,0,0,0,0,0,0,0,0,0,0.048,0.048,0.0473,0.0472,0.0472,0.0452,0.0451,0.0451,0.0423,0.0422,0.0422,0.0421,0.0395,0.0394,0.0394,0,0,0,0,0,0,0,0,0,0,0,0,0,0.047,0.048,0.0473,0.0456,0.0454,0.0452,0.0451,0.0451,0.0423,0.0422,0.0422,0.0421,0.0395,0.0394,0.0394,0.0404,0,0,0.0392,0.0392,0,0,0,0,0,0,0,0,0.047,0.0469,0.0459,0.0457,0.0455,0.0439,0.0444,0.0435,0.0423,0.0435,0.0422,0.0421,0.041,0.0408,0.0405,0.0403,0.0402,0.0392,0.0392,0.0392,0.0392,0,0,0,0,0,0,0,0.0471,0.047,0.0464,0.0458,0.0456,0.0446,0.0444,0.0442,0.0426,0.0434,0.0432,0.043,0.0408,0.0406,0.0404,0.0401,0.0392,0.0392,0.0392,0.0391,0.04,0.04,0,0,0,0,0,0,0.0475,0.0471,0.0465,0.0463,0.0461,0.0447,0.0444,0.0445,0.0426,0.0422,0.043,0.0429,0.0407,0.0405,0.0403,0.0421,0.0392,0.0391,0.0391,0.0399,0.04,0.04,0,0,0,0,0,0,0.0476,0.0475,0.0466,0.0467,0.0465,0.0448,0.0448,0.0445,0.0446,0.0424,0.042,0.0435,0.0406,0.0404,0.0407,0.0419,0.0391,0.0391,0.0398,0.0399,0.04,0.0452,0,0,0,0,0,0,0.0476,0.0475,0.0485,0.0467,0.0465,0.0472,0.0449,0.0445,0.0446,0.0443,0.0427,0.0423,0.0405,0.0408,0.0406,0.0418,0.039,0.0398,0.0399,0.04,0.045,0.0454,0.0458,0,0,0,0,0,0.0476,0.049,0.0485,0.0485,0.0476,0.0473,0.0471,0.0456,0.0447,0.0453,0.044,0.0424,0.0412,0.0408,0.0406,0.0418,0.0397,0.0399,0.04,0.0448,0.0453,0.0458,0,0,0,0,0,0,0.0501,0.0488,0.0482,0.0493,0.0487,0.0468,0.0477,0.0464,0.046,0.0459,0.0435,0.0431,0.0436,0.0422,0.0418,0.0422,0.04,0.0401,0.0437,0.0443,0.0447,0.045,0.039,0,0,0,0,0,0.0511,0.0519,0.0503,0.0515,0.0514,0.0498,0.0497,0.0486,0.0476,0.0473,0.0461,0.0447,0.0439,0.0437,0.0428,0.0437,0.0413,0.0441,0.0445,0.0449,0.045,0.0422,0.0424,0.0404,0.0404,0.0404,0,0,0.0524,0.052,0.0524,0.0521,0.0517,0.052,0.0496,0.05,0.0504,0.0473,0.0481,0.0465,0.0445,0.045,0.0451,0.044,0.0445,0.0451,0.0454,0.0453,0.0423,0.0425,0.0427,0.0405,0.0404,0.0404,0,0,0.0551,0.0551,0.0564,0.0561,0.0558,0.0547,0.0551,0.0537,0.0534,0.0539,0.0514,0.0503,0.0499,0.048,0.0471,0.0495,0.0469,0.0498,0.0525,0.0498,0.0499,0.05,0.0483,0.0482,0.0501,0.0501,0.0501,0,0.0571,0.0581,0.0569,0.0578,0.0584,0.0561,0.0575,0.0569,0.0558,0.0562,0.0548,0.0531,0.0509,0.0508,0.0512,0.0504,0.0491,0.0508,0.0504,0.0504,0.0504,0.0486,0.0484,0.0503,0.0503,0.0503,0.0503,0,0.0596,0.061,0.062,0.0624,0.0628,0.064,0.0627,0.0632,0.0624,0.0612,0.0613,0.0583,0.0571,0.0562,0.0544,0.0539,0.0532,0.0512,0.0491,0.0509,0.0489,0.0486,0.0507,0.0506,0.0506,0.0505,0,0,0.0627,0.0638,0.0643,0.0656,0.0656,0.0662,0.0675,0.068,0.069,0.0673,0.0683,0.0655,0.0635,0.0623,0.0598,0.0571,0.0556,0.0548,0.0546,0.0533,0.0509,0.0483,0.0477,0.0541,0.054,0.054,0.0499,0,0.0655,0.0685,0.0682,0.0715,0.073,0.0723,0.074,0.074,0.0732,0.0735,0.0701,0.0699,0.0661,0.066,0.0627,0.0567,0.0549,0.0569,0.0492,0.049,0.0465,0.0473,0.0539,0.0497,0.0496,0.0496,0.0495,0,0.0678,0.0697,0.0737,0.0766,0.0774,0.0794,0.0819,0.0831,0.0824,0.0818,0.0802,0.0771,0.0732,0.0699,0.061,0.0628,0.058,0.0532,0.0529,0.0483,0.0457,0.0471,0.0489,0.049,0.049,0.0491,0.0491,0,0.0701,0.0736,0.0774,0.0782,0.0809,0.0838,0.0858,0.0863,0.0882,0.0875,0.0879,0.0825,0.0806,0.0726,0.0622,0.0621,0.0522,0.0504,0.0441,0.0439,0.0452,0.0451,0.0457,0.0457,0.0457,0.0457,0.0457,0,0.0724,0.0755,0.0794,0.0813,0.087,0.0879,0.0934,0.094,0.0956,0.0979,0.093,0.0925,0.0813,0.074,0.0643,0.0527,0.0537,0.0446,0.0424,0.0476,0.0479,0.045,0.045,0.0455,0.0456,0.0456,0.0456,0,0.0735,0.0759,0.0804,0.0854,0.0883,0.0923,0.0992,0.1022,0.1032,0.106,0.1063,0.1001,0.0906,0.0788,0.0654,0.056,0.0446,0.0413,0.0486,0.0469,0.0379,0.0382,0.0333,0.0332,0.0331,0.033,0.0329,0,0.0739,0.0765,0.0839,0.0876,0.0907,0.0976,0.1028,0.1064,0.109,0.11,0.1108,0.1043,0.0987,0.0773,0.0647,0.0466,0.0441,0.0378,0.0368,0.0382,0.0366,0.037,0.0375,0.0328,0.0327,0.0327,0.0327,0,0.0741,0.0774,0.0809,0.0895,0.0961,0.1032,0.1103,0.1125,0.1162,0.1175,0.1134,0.1034,0.0935,0.077,0.0638,0.0505,0.0404,0.0366,0.0367,0.0357,0.0374,0.036,0.0366,0.0323,0.0323,0.0324,0.0324,0,0.0742,0.077,0.0827,0.0898,0.0983,0.1057,0.1098,0.1132,0.1161,0.1165,0.1153,0.1048,0.0995,0.0793,0.0662,0.0531,0.0494,0.043,0.0427,0.043,0.046,0.0496,0.0464,0,0,0,0,0,0.073,0.0766,0.0829,0.0904,0.0988,0.1048,0.1131,0.1162,0.1201,0.1173,0.1161,0.1067,0.0877,0.0796,0.0661,0.0639,0.047,0.0473,0.0395,0.0301,0.0306,0.0321,0,0,0,0,0,0,0.0723,0.0781,0.0816,0.0895,0.0954,0.1052,0.1112,0.1143,0.112,0.1137,0.1039,0.1009,0.0829,0.0955,0.0651,0.0615,0.0538,0.0396,0.0392,0.0299,0.0303,0.0306,0.0324,0,0,0,0,0]}]]